User: anonymous   Login
Location: Dampvalley
(47.9094°N, 6.1967°E)
Time: 16:33:12
(UTC+00:00)
Language:

Oscar 19 - Orbit

View from above orbital plane
View from above orbital plane
View from above satellite
View from above satellite

Ground track
Ground track

The orbit data is extracted from the following two-line orbital elements,

1 20442U 90005G   21337.11108994  .00000028  00000-0  26999-4 0  9994
2 20442  98.7660 294.2979 0012317  30.0562 330.1326 14.33008926665047
Epoch (UTC): 03 December 2021 02:39:58
Eccentricity: 0.0012317
inclination: 98.7660°
perigee height: 773 km
apogee height: 790 km
right ascension of ascending node: 294.2979°
argument of perigee: 30.0562°
revolutions per day: 14.33008926
mean anomaly at epoch: 330.1326°
orbit number at epoch: 66504

The dashed part of the orbit path shows where the satellite is in the earth's shadow,  

DLR